Regional Weather Roundup
Issued by NWS

Home | Current Version | Previous Version | Text Only | Print | Product List | Glossary Off
Versions: 1 2 3 4 5 6 7 8 9 10 11 12 13 14 15 16 17 18 19 20 21 22 23 24 25 26 27

000
ASUS45 KBOU 040107
RWRCO

WEATHER ROUNDUP FOR COLORADO
NATIONAL WEATHER SERVICE DENVER/BOULDER CO
600 PM MST SAT DEC 03 2016

NOTE: "FAIR" INDICATES FEW OR NO CLOUDS BELOW 12000 FEET WITH NO
SIGNIFICANT WEATHER AND/OR OBSTRUCTIONS TO VISIBILITY.

COZ001>005-013-030-031-040200-
...NORTHWEST COLORADO...

CITY           SKY/WX    TMP DP  RH WIND       PRES   REMARKS
CRAIG          CLOUDY    27  14  58 CALM      30.14R
HAYDEN         MOCLDY    23  12  63 SE5       30.13R WCI  17
MEEKER         CLOUDY    21  14  74 W5        30.14R WCI  15
MOUNT WERNER   NOT AVBL
STEAMBOAT SPGS CLOUDY    21  15  78 E3        30.12R
WALDEN           N/A     18   7  62 S10       30.07R WCI   6
$$

COZ006>008-011-040200-
...WEST CENTRAL VALLEYS...

CITY           SKY/WX    TMP DP  RH WIND       PRES   REMARKS
GRAND JUNCTION FAIR      30  17  58 N7        30.16S WCI  23
MONTROSE       FAIR      30  17  58 CALM      30.16R
EAGLE          MOCLDY    27  10  50 CALM      30.14R
RIFLE          FAIR      25  18  74 CALM      30.16R
DELTA          NOT AVBL
NUCLA          FAIR      30  10  43 NW5       30.16R WCI  25
$$

COZ017>023-064>068-040200-
...SOUTHWEST COLORADO...

CITY           SKY/WX    TMP DP  RH WIND       PRES   REMARKS
DURANGO        FAIR      29  21  72 E6        30.02S WCI  23
CORTEZ         FAIR      32  12  43 NW8       30.10R WCI  25
PAGOSA SPRINGS FAIR      29  24  81 CALM      30.02S
TELLURIDE      FAIR      20   6  53 W5        30.10R WCI  14
WOLF CREEK PAS FOG       12  12 100 W3        30.06R VSB 1/4
$$

COZ009-010-012-014-032>034-037-058>063-040200-
...CENTRAL COLORADO...

CITY           SKY/WX    TMP DP  RH WIND       PRES   REMARKS
ASPEN          CLOUDY    23  13  65 CALM      30.09R
BUENA VISTA    FAIR      24   7  47 NW12      30.03R WCI  13
COPPER MTN     CLOUDY    10   3  72 MISG      29.98S
BERTHOUD PASS  CLOUDY     1  -9  60 NW26G40   29.90R WCI -23
COTTONWOOD PAS FAIR      25   3  39 W15G29    30.00R WCI  12
GUNNISON       FAIR      26  10  50 S3        30.08R
KREMMLING      CLOUDY    28  18  64 CALM      30.11R
LEADVILLE      FAIR       8   2  76 VRB5      30.01S WCI   0
MONARCH PASS   CLOUDY     9   5  85 W24G37    30.09R WCI -12
SALIDA         FAIR      31  12  44 W7        30.10R WCI  24
SUNLIGHT       FAIR       9   5  85 SW6       30.09S WCI  -1
WILKERSON PASS CLOUDY    12   3  67 N10G17    30.00R WCI  -1
$$

COZ069>075-040200-
...SAN LUIS VALLEY/SANGRE DE CRISTO MOUNTAINS...

CITY           SKY/WX    TMP DP  RH WIND       PRES   REMARKS
ALAMOSA        FAIR      14  12  92 S3        30.02R
LA VETA PASS   FAIR      16  12  86 NE20G28   29.97R WCI  -1
SAGUACHE       CLOUDY    28   9  43 N7        30.04R WCI  21
$$

COZ035-036-038>040-040200-
...NORTHERN COLORADO FRONT RANGE...

CITY           SKY/WX    TMP DP  RH WIND       PRES   REMARKS
DENVER INTL AP FAIR      31  18  58 NE3       29.99R
DMNS CITY PARK   N/A     33  13  44 NE6       30.00R WCI  27
AURORA         PTCLDY    30  14  51 E5        29.99R WCI  25
FRONT RANGE AP PTCLDY    28  19  69 CALM      30.00R
ERIE MUNI ARPT FAIR      31   9  39 NW5       30.00R WCI  26
BOULDER MUN AP FAIR      34   9  35 W5        29.99R WCI  30
CENTENNIAL     FAIR      31  11  43 E6        29.98R WCI  25
BROOMFIELD     PTCLDY    34   9  35 W10       29.99R WCI  26
FORT COLLINS   FAIR      30  19  64 NE7       30.01R WCI  23
LONGMONT       FAIR      33  11  39 CALM      30.02R
$$

COZ041-046-047-076>085-087-088-040200-
...PIKES PEAK/PALMER DIVIDE AND SOUTHERN FOOTHILLS...

CITY           SKY/WX    TMP DP  RH WIND       PRES   REMARKS
COLO. SPRINGS  FAIR      31   8  38 N8        29.98R WCI  23
A. F. ACADEMY  FAIR      26   9  49 N9        29.97R WCI  16
SCHRIEVER AFB  NOT AVBL
ELLICOTT       FAIR     N/A N/A N/A NE10      29.96R
FALCON         FAIR      28   7  41 N5        29.99R WCI  22
FORT CARSON    FAIR      36  16  45 W5        29.97R
LIMON          FAIR      20  12  71 N8        29.98R WCI  10
MONUMENT HILL  CLOUDY    28   9  43 N3        30.00R
TRINIDAD       FAIR      33  16  49 NE7       29.96R WCI  27
$$

COZ042>045-048>051-090-091-040200-
...NORTHEAST COLORADO...

CITY           SKY/WX    TMP DP  RH WIND       PRES   REMARKS
GREELEY ARPT   MOCLDY    29  18  63 NW3       30.02R
AKRON          CLOUDY    26  15  63 N8        29.99R WCI  18
BURLINGTON     FAIR      30  21  69 S3        29.97R
WRAY           NOT AVBL
STERLING       FAIR      32  16  51 NW15      29.99R WCI  22
HOLYOKE        FAIR      37  14  38 NW7       29.99R
FORT MORGAN    FAIR      28  17  64 NW8       30.00R WCI  20
$$

COZ086-089-092>099-040200-
...SOUTHEAST COLORADO...

CITY           SKY/WX    TMP DP  RH WIND       PRES   REMARKS
PUEBLO         FAIR      28  16  60 CALM      29.97R
LA JUNTA       FAIR      34  20  56 N6        29.97R WCI  29
LAMAR          FAIR      32  27  81 SE9       29.97R WCI  24
SPRINGFIELD      N/A     28  26  92 SW6       29.95R WCI  22
$$




USA.gov is the U.S. government's official web portal to all federal, state and local government web resources and services.